DW7980 Weather Reports


time (UTC)temp
C
wind
direction
speed
KPH
gust
KPH
rain 1hr
cm
rain 24hr
cm
rain mn
cm
humidity
%
barometer
mb
20260503195539 31 0 1.6 4.8 0.00 0.00 0.00 40 1010.7
20260503195040 31 310 1.6 4.8 0.00 0.00 0.00 41 1010.8
20260503194548 31 344 1.6 4.8 0.00 0.00 0.00 42 1010.7
20260503194039 31 0 1.6 4.8 0.00 0.00 0.00 43 1010.8
20260503193539 30 0 1.6 4.8 0.00 0.00 0.00 46 1010.9
20260503193052 30 16 1.6 6.4 0.00 0.00 0.00 43 1010.9
20260503192538 30 329 1.6 6.4 0.00 0.00 0.00 42 1010.9
20260503192037 30 0 1.6 6.4 0.00 0.00 0.00 45 1010.9
20260503191549 29 336 1.6 6.4 0.00 0.00 0.00 45 1011.0
20260503191038 29 51 3.2 8.0 0.00 0.00 0.00 43 1011.0
20260503190541 29 53 3.2 8.0 0.00 0.00 0.00 45 1011.1
20260503190049 29 51 1.6 8.0 0.00 0.00 0.00 46 1011.2
20260503185543 28 0 0.0 4.8 0.00 0.00 0.00 49 1011.3
20260503185038 28 277 1.6 4.8 0.00 0.00 0.00 50 1011.4
20260503184603 28 304 1.6 4.8 0.00 0.00 0.00 49 1011.4
20260503184039 28 31 1.6 4.8 0.00 0.00 0.00 50 1011.5
20260503183541 28 28 1.6 4.8 0.00 0.00 0.00 47 1011.5
20260503183058 28 0 1.6 6.4 0.00 0.00 0.00 45 1011.5
20260503182540 28 64 3.2 6.4 0.00 0.00 0.00 50 1011.5
20260503182040 28 47 1.6 4.8 0.00 0.00 0.00 48 1011.5
20260503181554 27 47 1.6 4.8 0.00 0.00 0.00 48 1011.6
20260503181039 27 22 1.6 4.8 0.00 0.00 0.00 50 1011.5
20260503180539 27 334 0.0 6.4 0.00 0.00 0.00 48 1011.5
20260503180049 27 306 1.6 6.4 0.00 0.00 0.00 50 1011.5
20260503175542 26 40 0.0 8.0 0.00 0.00 0.00 53 1011.5
20260503175039 26 40 0.0 8.0 0.00 0.00 0.00 51 1011.6
20260503174550 26 350 1.6 8.0 0.00 0.00 0.00 48 1011.7
20260503174038 25 348 1.6 3.2 0.00 0.00 0.00 54 1011.8
20260503173538 25 351 0.0 4.8 0.00 0.00 0.00 56 1011.8
20260503173053 24 350 0.0 4.8 0.00 0.00 0.00 59 1011.9
20260503172541 23 65 0.0 3.2 0.00 0.00 0.00 60 1012.0
20260503172038 23 0 0.0 3.2 0.00 0.00 0.00 63 1012.0
20260503171548 22 346 0.0 3.2 0.00 0.00 0.00 69 1012.1
20260503171038 21 346 0.0 3.2 0.00 0.00 0.00 70 1012.1
20260503170541 20 346 0.0 3.2 0.00 0.00 0.00 74 1012.0
20260503150538 11 0 0.0 0.0 0.00 0.00 0.00 91 1012.5
20260503131039 11 0 0.0 3.2 0.00 0.00 0.00 90 1012.1
20260503130538 11 0 0.0 3.2 0.00 0.00 0.00 90 1012.0
20260503110539 11 0 0.0 0.0 0.00 0.00 0.00 89 1012.3
20260503081617 12 0 0.0 0.0 0.00 0.00 0.00 87 1013.0
20260503081038 12 0 0.0 0.0 0.00 0.00 0.00 87 1013.0
20260503080538 12 0 0.0 0.0 0.00 0.00 0.00 87 1013.1
20260503080108 12 0 0.0 0.0 0.00 0.00 0.00 87 1013.1
20260503072539 12 0 0.0 0.0 0.00 0.03 0.00 87 1013.2
20260503072038 12 0 0.0 0.0 0.00 0.03 0.00 86 1013.1
20260503071551 12 0 0.0 0.0 0.00 0.03 0.00 86 1013.2
20260503071038 12 0 0.0 0.0 0.00 0.03 0.00 86 1013.2
20260503070538 13 0 0.0 3.2 0.00 0.03 0.00 86 1013.1
20260503055041 14 0 0.0 1.6 0.00 0.03 0.03 84 1013.1
20260503054554 14 0 0.0 3.2 0.00 0.03 0.03 84 1013.2
20260503054039 14 248 0.0 3.2 0.00 0.03 0.03 84 1013.1
20260503053539 14 0 0.0 3.2 0.00 0.03 0.03 84 1013.2
20260503053047 14 0 0.0 0.0 0.00 0.03 0.03 83 1013.2
20260503052540 15 0 0.0 3.2 0.00 0.03 0.03 83 1013.1
20260503052039 15 0 0.0 3.2 0.00 0.03 0.03 83 1013.2
20260503051557 15 248 1.6 3.2 0.00 0.03 0.03 83 1013.2
20260503051039 15 0 0.0 0.0 0.00 0.03 0.03 83 1013.1
20260503050539 15 0 0.0 3.2 0.00 0.03 0.03 83 1012.9
20260503050054 15 0 0.0 3.2 0.00 0.03 0.03 82 1012.9
20260503045539 15 0 0.0 4.8 0.00 0.03 0.03 82 1012.8
20260503045039 15 0 0.0 4.8 0.00 0.03 0.03 82 1012.9
20260503044610 15 248 0.0 4.8 0.00 0.03 0.03 82 1012.8
20260503044038 15 0 1.6 3.2 0.00 0.03 0.03 82 1012.7
20260503043538 15 351 0.0 3.2 0.00 0.03 0.03 81 1012.8
20260503043050 15 351 0.0 3.2 0.00 0.03 0.03 81 1012.9
20260503042539 15 351 0.0 3.2 0.00 0.03 0.03 81 1013.2
20260503042039 15 0 0.0 1.6 0.00 0.03 0.03 81 1013.1
20260503041551 15 0 0.0 3.2 0.00 0.03 0.03 81 1013.1
20260503041040 16 0 0.0 3.2 0.00 0.03 0.03 81 1012.9
20260503040539 16 276 0.0 3.2 0.00 0.03 0.03 81 1012.8
20260503040050 16 0 0.0 0.0 0.00 0.03 0.03 80 1013.0
20260503035539 16 0 0.0 0.0 0.00 0.03 0.03 80 1012.9
20260503035038 16 0 0.0 3.2 0.00 0.03 0.03 81 1012.8
20260503034550 16 0 0.0 3.2 0.00 0.03 0.03 80 1012.9
20260503034040 16 0 0.0 3.2 0.00 0.03 0.03 80 1012.9
20260503033543 16 0 0.0 3.2 0.00 0.03 0.03 80 1012.9
20260503033100 16 0 0.0 3.2 0.00 0.03 0.03 80 1012.9
20260503032539 16 276 0.0 4.8 0.00 0.03 0.03 80 1013.1
20260503032041 16 0 1.6 4.8 0.00 0.03 0.03 80 1013.1
20260503031555 16 175 0.0 1.6 0.00 0.03 0.03 79 1013.1
20260503031039 16 175 0.0 3.2 0.00 0.03 0.03 79 1012.9
20260503030539 16 175 0.0 3.2 0.00 0.03 0.03 79 1013.0
20260503030042 16 0 0.0 3.2 0.00 0.03 0.03 79 1013.0
20260503025538 16 0 0.0 3.2 0.00 0.03 0.03 79 1012.9
20260503025040 16 0 0.0 6.4 0.00 0.03 0.03 78 1012.8
20260503024610 16 175 1.6 6.4 0.00 0.03 0.03 78 1012.8
20260503024039 16 0 1.6 6.4 0.00 0.03 0.03 78 1012.9
20260503023543 17 76 1.6 4.8 0.00 0.03 0.03 77 1012.7
20260503023047 17 94 0.0 4.8 0.00 0.03 0.03 77 1013.1
20260503022539 17 0 0.0 11.3 0.00 0.03 0.03 76 1013.1
20260503022042 17 179 0.0 12.9 0.00 0.03 0.03 75 1013.0
20260503021559 17 181 3.2 14.5 0.00 0.03 0.03 75 1013.2
20260503021039 17 119 1.6 14.5 0.00 0.03 0.03 75 1013.1
20260503020539 17 181 4.8 14.5 0.00 0.03 0.03 75 1013.2
20260503020049 17 254 6.4 20.9 0.00 0.03 0.03 74 1013.3
20260503015542 18 218 8.0 20.9 0.00 0.03 0.03 74 1013.3
20260503015039 18 210 4.8 14.5 0.00 0.03 0.03 72 1013.3
20260503014544 18 192 3.2 14.5 0.00 0.03 0.03 72 1012.8
20260503014039 19 194 4.8 14.5 0.00 0.03 0.03 70 1012.5
20260503013539 19 168 3.2 9.7 0.00 0.03 0.03 69 1012.5
20260503013049 20 177 4.8 9.7 0.00 0.03 0.03 69 1012.4
20260503012544 20 113 0.0 3.2 0.00 0.03 0.03 67 1012.3
20260503012039 20 0 0.0 3.2 0.00 0.03 0.03 66 1012.2
20260503011557 20 0 0.0 3.2 0.00 0.03 0.03 66 1012.2
20260503011040 20 0 0.0 0.0 0.00 0.03 0.03 66 1012.2
20260503010539 20 0 0.0 1.6 0.00 0.03 0.03 66 1012.1
20260503010047 20 0 0.0 1.6 0.00 0.03 0.03 64 1012.1
20260503005539 20 0 0.0 1.6 0.00 0.03 0.03 64 1012.1
20260503005039 20 0 0.0 1.6 0.00 0.03 0.03 65 1012.2
20260503004546 20 0 0.0 1.6 0.00 0.03 0.03 64 1012.1
20260503004039 20 0 0.0 0.0 0.00 0.03 0.03 66 1012.1
20260503003543 20 0 0.0 3.2 0.00 0.03 0.03 68 1012.1
20260503003045 20 0 0.0 3.2 0.00 0.03 0.03 66 1012.1
20260503002539 20 0 0.0 3.2 0.00 0.03 0.03 66 1012.2
20260503002041 20 0 0.0 4.8 0.00 0.03 0.03 63 1012.2
20260503001550 20 0 0.0 4.8 0.00 0.03 0.03 66 1012.0
20260503001038 20 0 0.0 4.8 0.00 0.03 0.03 65 1012.1
20260503000538 20 0 0.0 1.6 0.00 0.03 0.03 66 1012.1
20260503000104 20 0 0.0 3.2 0.00 0.03 0.03 65 1012.2
20260502235540 20 0 0.0 3.2 0.00 0.03 0.03 66 1012.2
20260502235039 20 82 0.0 3.2 0.00 0.03 0.03 63 1012.2
20260502234557 20 0 0.0 4.8 0.00 0.03 0.03 63 1012.2
20260502234040 20 330 1.6 9.7 0.00 0.03 0.03 66 1012.3
20260502233540 20 169 0.0 9.7 0.00 0.03 0.03 65 1012.3
20260502233104 20 182 1.6 6.4 0.00 0.03 0.03 64 1012.4
20260502232539 20 301 0.0 6.4 0.00 0.03 0.03 65 1012.5
20260502232037 20 0 3.2 6.4 0.00 0.03 0.03 64 1012.4
20260502231559 20 0 0.0 4.8 0.00 0.03 0.03 64 1012.6
20260502231041 20 144 0.0 4.8 0.00 0.03 0.03 64 1012.7
20260502230539 20 75 1.6 4.8 0.00 0.03 0.03 65 1012.6
20260502230046 20 0 0.0 6.4 0.00 0.03 0.03 64 1012.7
20260502225541 20 344 0.0 6.4 0.00 0.03 0.03 62 1012.7
20260502225038 20 156 0.0 6.4 0.00 0.03 0.03 62 1012.7
20260502224544 20 75 1.6 6.4 0.00 0.03 0.03 61 1012.7
20260502224039 20 146 1.6 4.8 0.00 0.03 0.03 67 1012.8
20260502223540 20 82 0.0 3.2 0.00 0.03 0.03 67 1013.0
20260502223051 20 0 1.6 3.2 0.00 0.03 0.03 63 1013.2
20260502222542 20 0 0.0 3.2 0.00 0.03 0.03 64 1013.2
20260502222038 19 360 0.0 3.2 0.00 0.03 0.03 67 1013.3
20260502221600 19 63 0.0 4.8 0.00 0.03 0.03 66 1013.2
20260502221039 19 314 0.0 4.8 0.00 0.03 0.03 66 1013.3
20260502220541 19 314 1.6 4.8 0.00 0.03 0.03 65 1013.4
20260502220049 19 0 0.0 4.8 0.00 0.03 0.03 66 1013.5
20260502215539 18 360 1.6 4.8 0.00 0.03 0.03 70 1013.5
20260502215044 18 0 0.0 9.7 0.00 0.03 0.03 69 1013.6
20260502214604 18 140 3.2 9.7 0.00 0.03 0.03 67 1013.7
20260502214039 18 0 0.0 4.8 0.00 0.03 0.03 70 1013.8
20260502213539 17 329 0.0 4.8 0.00 0.03 0.03 69 1013.9
20260502213053 17 300 0.0 6.4 0.00 0.03 0.03 73 1013.9
20260502212540 17 0 0.0 6.4 0.00 0.03 0.03 71 1014.0
20260502212042 17 321 1.6 6.4 0.00 0.03 0.03 71 1014.2
20260502211557 17 192 1.6 6.4 0.00 0.03 0.03 73 1014.2
20260502211042 17 0 0.0 6.4 0.00 0.03 0.03 74 1014.2
20260502210540 16 229 3.2 6.4 0.00 0.03 0.03 71 1014.4
20260502210050 17 221 1.6 6.4 0.00 0.03 0.03 70 1014.4
20260502205539 17 319 3.2 6.4 0.00 0.03 0.03 74 1014.5
20260502205039 17 168 0.0 6.4 0.00 0.03 0.03 73 1014.6
20260502204553 16 0 0.0 6.4 0.00 0.03 0.03 75 1014.7
20260502204041 16 175 1.6 6.4 0.00 0.03 0.03 73 1014.8
20260502203540 16 337 1.6 6.4 0.00 0.03 0.03 73 1015.0
20260502203057 16 0 0.0 3.2 0.00 0.03 0.03 75 1015.1
20260502202539 16 272 0.0 6.4 0.00 0.03 0.03 78 1015.1
20260502202039 15 0 0.0 8.0 0.00 0.03 0.03 77 1015.2
20260502201550 15 274 1.6 8.0 0.00 0.03 0.03 75 1015.2
20260502201039 15 167 0.0 9.7 0.00 0.03 0.03 78 1015.3
20260502200542 15 0 3.2 9.7 0.00 0.03 0.03 76 1015.1
20260502200052 15 161 1.6 9.7 0.00 0.03 0.03 76 1015.2